Portada
METAR-TAF:

METAR-TAF

Aeroports :

Fillmore County Airport

Preston, Minnesota, Estats Units d'Amèrica

latitud: 43-40-36N, longitud: 092-10-47W, altitud: 389 m

Observació

L'informe es va fer fa 18 minuts, a les 00:16 UTC
Vent 8 kt del Nord-Oest
Temperatura -18°C
Humitat 77%
Pressió 1024 hPa
Visibilitat: 16.1 km
Cel clar

METAR: KFKA 200016Z AUTO 32008KT 10SM CLR M18/M21 A3023 RMK AO2 T11831215

Hora: 18:34 (00:34 UTC)


TAF: manca

Observacions i pronòstics meteorològics de més de 4000 aeroports (METAR i TAF).

Les estacions disponibles són els punts grocs i vermells al mapa.

Posi el ratolí al punt desitjat per veure el nom de l'estació.

Feu clic per veure les observacions i els pronòstics meteorològics.

Per canviar el mapa: feu clic els botons verds amb una creu de color negre per apropar; al botó verd amb un guió per allunyar la imatge; o en les fletxes verdes per a mapes adjacents.


METAR-TAF: